Location: Johnson City
(36.3130°N, 82.3540°W)
Time: 22:28:54
(UTC-05:00)

N. Korean satellite - Visible Passes

Search period start: 23 February 2019 00:00
Search period end: 05 March 2019 00:00
Orbit: 456 x 510 km, 97.2° (Epoch: 23 February)

Date Brightness Start Highest point End Pass type
(mag) Time Alt. Az. Time Alt. Az. Time Alt. Az.
23 Feb 8.3 06:15:23 10° NNE 06:18:35 36° E 06:21:45 10° SSE visible
24 Feb 9.8 05:51:27 10° NE 05:53:44 17° E 05:56:00 10° SE visible
25 Feb 10.7 19:08:15 10° WSW 19:09:02 11° W 19:09:48 10° W visible
26 Feb 6.7 06:34:20 10° NNE 06:37:46 73° ESE 06:41:10 10° S visible
27 Feb 8.7 06:09:54 10° NE 06:12:58 30° E 06:16:01 10° SSE visible
28 Feb 9.9 05:46:11 10° ENE 05:48:05 14° E 05:49:59 10° SE visible
01 Mar 10.5 19:01:52 10° WSW 19:03:23 12° W 19:04:54 10° WNW visible
02 Mar 7.2 06:28:44 10° NNE 06:32:08 60° E 06:35:31 10° S visible
03 Mar 9.1 06:04:23 10° NE 06:07:18 25° E 06:10:13 10° SSE visible
04 Mar 10.1 05:41:00 10° ENE 05:42:25 12° E 05:43:49 10° ESE visible
